Location: La Ch�vrie
(48.1523°N, 1.1779°W)
Time: 01:26:07
(UTC+00:00)

Daily predictions for brighter satellites

Satellite Brightness Start Highest point End
(mag) Time Altitude Azimuth Time Altitude Azimuth Time Altitude Azimuth
ATLAS CENTAUR R/B 4.0 00:02:02 10° NNW 00:03:22 14° NNE 00:05:05 10° ENE
Lacrosse 5 3.8 00:00:54 10° W 00:03:12 15° WSW 00:03:12 15° WSW
STARLINK-1225 4.2 00:00:02 10° W 00:04:07 58° NNW 00:08:13 10° ENE
Cosmos 292 Rocket 3.7 00:03:39 46° SSW 00:05:06 84° WNW 00:10:00 10° NNE
STARLINK-1104 3.5 00:03:56 10° WNW 00:08:03 66° SSW 00:08:12 65° SSW
STARLINK-1230 4.3 00:05:02 10° W 00:09:06 55° NNW 00:13:11 10° ENE
S3M 4.1 00:04:04 10° NNW 00:10:08 64° W 00:12:36 36° SSW
Cosmos 1655 Rocket 4.0 00:07:30 36° SSW 00:10:14 75° W 00:16:31 10° N
Cosmos 1726 1.9 00:06:58 10° NNW 00:10:42 81° W 00:10:54 76° SSW
STARLINK-1235 4.4 00:08:21 10° WNW 00:11:17 37° NNE 00:14:13 10° E
STARLINK-1187 4.4 00:08:47 10° WNW 00:11:41 36° N 00:14:36 10° E
GEOS 3 Rocket 4.1 00:07:39 16° ESE 00:11:41 61° NE 00:16:56 10° NW
STARLINK-1144 3.5 00:08:56 10° WNW 00:13:00 62° SW 00:13:00 62° SW
COSMOS 2455 3.6 00:11:40 31° SE 00:13:17 36° ESE 00:18:44 10° NE
SL-27 R/B 3.7 00:10:14 10° NW 00:13:10 31° W 00:13:10 31° W
Meteor 1-29 4.5 00:10:44 10° NE 00:13:32 25° E 00:13:32 25° E
STARLINK-1243 4.3 00:10:02 10° W 00:14:06 53° NNW 00:18:11 10° ENE
Cosmos 2228 3.5 00:10:12 10° N 00:14:22 50° ENE 00:15:32 38° ESE
Cosmos 2263 4.1 00:12:24 40° SSW 00:14:32 85° ESE 00:20:11 10° NNE
STARLINK-1222 4.5 00:11:54 10° WNW 00:14:48 35° N 00:17:43 10° E
STARLINK-1214 4.5 00:12:48 10° WNW 00:15:43 36° N 00:18:37 10° E
STARLINK-1103 3.7 00:13:55 10° WNW 00:17:46 56° SW 00:17:46 56° SW
Meteor 2-15 Rocket 4.5 00:11:54 10° N 00:18:05 77° ENE 00:20:55 34° SSE
Cosmos 1953 2.4 00:15:03 10° NNW 00:19:01 57° W 00:19:26 53° SW
STARLINK-1236 4.4 00:15:02 10° W 00:19:06 52° NNW 00:23:10 10° ENE
Cosmos 1340 Rocket 2.7 00:16:34 10° NNW 00:20:36 75° W 00:21:08 63° SSW
Cosmos 1271 Rocket 3.7 00:21:40 33° W 00:22:26 37° WNW 00:26:05 10° N
STARLINK-1101 3.8 00:18:54 10° WNW 00:22:33 51° WSW 00:22:33 51° WSW
COSMOS 2487 2.6 00:23:31 10° NNW 00:26:59 64° ENE 00:27:18 59° E
Cosmos 1992 Rocket 3.9 00:25:15 42° SSW 00:27:04 84° WNW 00:32:18 10° NNE
Cosmos 1833 4.2 00:22:07 10° NNW 00:27:45 70° WSW 00:29:45 40° S
STARLINK-1102 4.0 00:23:55 10° WNW 00:27:21 45° WSW 00:27:21 45° WSW
Cosmos 1707 3.8 00:29:05 31° W 00:29:54 34° WNW 00:33:30 10° N
STARLINK-1111 4.2 00:28:55 10° WNW 00:32:07 40° WSW 00:32:07 40° WSW
USA 215 4.2 00:33:06 25° SW 00:33:42 26° SW 00:39:00 10° WNW
Cosmos 1626 3.5 00:34:31 27° ESE 00:35:09 28° E 00:38:23 10° NNE
Cosmos 1656 Rocket 3.6 00:33:51 39° SSW 00:36:05 89° ESE 00:41:43 10° NNE
In-Cosmos 22 4.2 00:35:37 39° SSW 00:37:35 69° WNW 00:42:53 10° N
Cosmos 1606 Rocket 3.4 00:33:26 10° N 00:37:47 90° E 00:38:48 52° S
STARLINK-1073 4.4 00:33:55 10° WNW 00:36:55 36° WSW 00:36:55 36° WSW
FALCON 9 R/B 3.7 00:38:25 29° SSE 00:39:27 29° SSE 00:51:56 10° E
EO 1 Delta rocket 4.4 00:35:54 10° N 00:42:26 74° WNW 00:44:41 37° SSW
Meteor 1-16 Rocket 4.5 00:38:03 10° NNW 00:43:31 53° W 00:45:20 37° SSW
CZ-4 R/B 3.8 00:38:59 10° NNE 00:43:51 84° WNW 00:45:23 44° SSW
Cosmos 2292 Rocket 4.1 00:45:34 36° WSW 00:46:39 43° W 00:50:14 10° N
Cosmos 2297 Rocket 4.1 00:42:10 10° NNW 00:47:01 28° NE 00:51:48 10° ESE
SL-4 R/B 2.8 00:49:12 41° SSE 00:49:40 43° SE 00:54:10 10° ENE
NOSS 3-2 (C) 4.3 00:42:58 10° NW 00:50:16 52° WSW 00:54:30 29° S
PSLV R/B 3.7 00:47:52 10° N 00:52:31 77° WNW 00:53:53 45° SSW
Cosmos 1437 4.5 00:52:48 21° E 00:52:56 21° E 00:55:18 10° NE
Cosmos 1674 2.8 00:53:21 53° WSW 00:53:52 60° WNW 00:57:37 10° N
Aureole 3 4.1 00:51:46 10° NNW 00:55:01 30° W 00:55:01 30° W
SL-19 R/B 4.4 00:52:15 10° NNE 00:57:36 61° ESE 01:00:03 33° S
ATLAS CENTAUR R/B 1.7 00:56:56 46° SSE 00:57:45 54° ESE 01:01:50 10° NE
Cosmos 1777 Rocket 4.0 00:53:51 10° NNW 00:59:07 82° ENE 01:01:54 28° SSE
Timation 2 Rocket 4.1 00:52:51 10° NNW 00:59:16 73° ENE 01:04:30 15° SE
BREEZE-M R/B 4.3 01:01:07 26° SE 01:01:07 26° SE 01:03:38 10° E
NOSS 3-4 (A) 3.4 00:57:31 32° SW 01:00:32 90° ESE 01:06:58 10° NE
NOSS 3-4 (C) 3.4 00:57:37 32° SW 01:00:38 89° SE 01:07:04 10° NE
SL-16 R/B 3.3 00:56:01 12° SE 01:01:31 50° ENE 01:07:26 10° N
Spot 1 4.3 01:00:54 35° SSE 01:02:51 83° ENE 01:07:44 10° NNW
ATLAS 3B R/B 2.6 00:59:30 10° NW 01:06:19 81° SW 01:12:42 13° SSE
CENTAUR R/B 3.5 01:02:21 10° NW 01:10:04 48° WSW 01:14:47 26° S
Cosmos 1244 Rocket 4.4 01:07:54 32° S 01:10:59 85° W 01:17:13 10° N
BREEZE-M DEB (TANK) 2.2 01:12:39 36° E 01:12:39 36° E 01:14:10 10° E
Cosmos 1867 3.8 01:09:29 10° NW 01:14:46 51° WSW 01:16:44 34° S
Meteor 2-21 Rocket 4.4 01:11:40 31° S 01:14:50 82° E 01:21:02 10° NNE
Cosmos 1908 4.2 01:11:25 10° NNW 01:14:50 31° W 01:15:09 31° WSW
Cosmos 1892 Rocket 3.6 01:14:51 42° SSW 01:16:15 69° W 01:20:39 10° N
Cosmos 1745 Rocket 4.3 01:12:46 24° SSE 01:16:22 57° E 01:22:22 10° NNE
STARLINK-1205 4.5 01:13:11 10° WNW 01:17:14 51° NNE 01:21:17 10° E
RESURS DK-1 2.7 01:19:17 39° SSE 01:20:24 53° ESE 01:24:28 10° NE
STARLINK-1218 4.4 01:18:09 10° WNW 01:22:13 53° NNE 01:26:17 10° E
Cosmos 2227 Rocket 3.5 01:17:31 10° NNW 01:22:53 40° NE 01:28:12 10° ESE
Cosmos 1356 Rocket 3.7 01:19:32 10° N 01:23:39 62° ENE 01:25:49 27° SSE
Meteor 1-24 Rocket 3.5 01:22:03 34° SSW 01:24:28 81° WNW 01:29:54 10° N
Cosmos 2369 Rocket 3.9 01:20:44 10° WSW 01:25:26 27° NW 01:30:11 10° N
Cosmos 1726 Rocket 4.3 01:21:50 10° NNW 01:25:48 36° W 01:26:45 32° WSW
Meteor 2-14 Rocket 4.5 01:24:00 30° SSW 01:27:07 71° WNW 01:33:15 10° N
STARLINK-1254 4.4 01:23:08 10° WNW 01:27:14 54° NNE 01:31:18 10° E
CZ-2D R/B 2.7 01:22:10 10° NNE 01:27:16 47° E 01:30:15 23° SSE
Helios 1B rocket 3.7 01:23:59 10° N 01:27:39 31° WNW 01:29:11 24° WSW
ATLAS 2AS CENTAUR R/B 3.3 01:23:17 19° SW 01:29:24 68° NW 01:37:19 10° NE
ADEOS II 4.0 01:25:41 10° NE 01:29:39 21° E 01:33:36 10° SE
STARLINK-1231 4.3 01:28:09 10° WNW 01:32:15 57° NNE 01:36:20 10° E
CZ-4C R/B 3.5 01:30:46 30° SSE 01:32:49 84° ENE 01:37:12 10° NNW
STARLINK-1228 2.9 01:30:45 10° WNW 01:34:05 73° SSW 01:37:26 10° SE
STARLINK-1234 2.7 01:32:11 10° WNW 01:35:19 74° SSW 01:37:02 24° SE
DELTA 2 DEB (DPAF) 4.2 01:34:10 34° S 01:35:57 64° WSW 01:40:25 10° NNW
Cosmos 1943 Rocket 4.4 01:32:31 10° W 01:36:21 19° NW 01:40:12 10° N
STARLINK-1212 2.7 01:33:33 10° WNW 01:36:40 88° NNE 01:39:47 10° ESE
Resurs 1-4 Rocket 2.5 01:31:50 10° NNE 01:37:04 59° E 01:40:11 24° S
STARLINK-1105 2.7 01:34:02 10° WNW 01:37:08 89° NE 01:40:14 10° ESE
STARLINK-1232 4.2 01:33:08 10° WNW 01:37:14 59° NNE 01:41:21 10° E
STARLINK-1209 2.7 01:34:27 10° WNW 01:37:36 68° SSW 01:38:42 36° SE
Meteor 2-5 Rocket 4.2 01:35:17 27° SW 01:38:01 49° WNW 01:43:27 10° N
STARLINK-1247 2.7 01:34:56 10° WNW 01:38:04 90° WSW 01:41:11 10° ESE
STARLINK-1227 2.7 01:35:24 10° WNW 01:38:30 89° SSW 01:41:36 10° ESE
STARLINK-1226 2.7 01:36:15 10° WNW 01:39:22 88° SW 01:42:29 10° ESE
STARLINK-52 3.4 01:39:41 42° SSE 01:39:46 43° SE 01:42:50 10° ENE
STARLINK-1215 2.7 01:37:11 10° WNW 01:40:19 87° SSW 01:43:27 10° ESE
STARLINK-1217 2.7 01:38:57 10° WNW 01:42:05 85° SSW 01:45:12 10° ESE
STARLINK-1208 4.1 01:38:05 10° WNW 01:42:13 61° NNE 01:46:19 10° E
STARLINK-1229 2.7 01:39:52 10° WNW 01:43:01 83° SSW 01:46:08 10° ESE
STARLINK-1270 2.7 01:40:44 10° WNW 01:43:52 82° SSW 01:47:00 10° ESE
NPP 4.0 01:39:10 10° NNE 01:44:31 58° E 01:47:57 22° S
STARLINK-1189 2.7 01:42:35 10° WNW 01:45:42 80° SSW 01:48:50 10° ESE
STARLINK-1188 2.7 01:43:27 10° WNW 01:46:36 79° SSW 01:49:43 10° ESE
STARLINK-1271 4.0 01:43:05 10° WNW 01:47:13 64° NNE 01:51:21 10° ESE
STARLINK-1235 2.7 01:44:10 10° WNW 01:47:14 63° SSW 01:50:18 10° SE
STARLINK-1187 2.7 01:44:35 10° WNW 01:47:40 70° SSW 01:50:46 10° SE
Cosmos 1898 Rocket 4.5 01:43:08 10° NNW 01:48:20 48° ENE 01:53:28 10° SE
STARLINK-1191 2.6 01:45:57 10° WNW 01:49:03 75° SSW 01:52:08 10° SE
Starlink 7 placeholder 3.3 01:49:43 37° NNE 01:49:43 37° NNE 01:51:12 10° NE
Lacrosse 4 Rocket 4.1 01:46:08 10° N 01:49:35 22° NE 01:52:57 10° E
Cosmos 2058 Rocket 4.0 01:45:44 10° NNW 01:49:41 33° W 01:51:01 27° SW
STARLINK-1221 2.7 01:46:49 10° WNW 01:49:55 74° SSW 01:53:01 10° SE
GEOS 3 Rocket 4.4 01:48:43 27° SW 01:50:00 30° WSW 01:54:37 10° WNW
STARLINK-1222 2.7 01:47:42 10° WNW 01:50:48 73° SSW 01:53:54 10° SE
STARLINK-1214 2.7 01:48:37 10° WNW 01:51:43 72° SSW 01:54:47 10° SE
STARLINK-1154 4.0 01:48:04 10° WNW 01:52:13 67° NNE 01:56:21 10° ESE
CZ-4C R/B 3.9 01:50:43 11° SSE 01:53:58 20° ESE 01:57:58 10° ENE
SJ 16-02 2.0 01:49:36 10° NNW 01:53:59 55° ENE 01:58:20 10° SE
Cosmos 2084 3.8 01:52:18 30° SSW 01:54:16 58° SE 01:58:41 10° NE
SL-14 R/B 4.2 01:54:05 27° WSW 01:55:25 35° WNW 01:58:59 10° N
SL-08 ROCKET BODY 4.3 01:52:04 25° SSW 01:55:40 79° W 02:01:33 10° N
STARLINK-1197 3.9 01:53:03 10° WNW 01:57:12 71° NNE 02:01:20 10° ESE
COSMOS 2455 3.5 01:54:47 18° WSW 01:59:05 50° NW 02:04:58 10° NNE
Cosmos 1300 3.7 01:55:46 10° NNW 01:59:07 30° W 02:00:00 27° WSW
Meteor 2-10 Rocket 3.7 01:55:47 10° N 02:01:10 74° ENE 02:06:00 12° SSE
STARLINK-1198 3.8 01:58:00 10° WNW 02:02:10 74° NNE 02:06:18 10° ESE
Cosmos 921 Rocket 3.3 02:00:21 28° SW 02:02:22 56° WNW 02:06:38 10° NNE
Cosmos 1709 Rocket 4.1 02:01:48 18° S 02:06:27 76° E 02:12:35 10° NNE
Cosmos 1386 Rocket 4.5 02:02:41 23° SSW 02:06:34 69° WNW 02:12:44 10° N
STARLINK-1199 3.7 02:03:01 10° WNW 02:07:11 78° NNE 02:11:20 10° ESE
Cosmos 1626 Rocket 3.8 02:06:42 27° SW 02:08:50 55° WNW 02:13:06 10° N
Cosmos 1626 3.7 02:09:03 18° WSW 02:10:25 22° WNW 02:13:25 10° NNW
STARLINK-60 3.4 02:08:52 22° W 02:10:45 59° NNW 02:13:56 10° ENE
STARLINK-1210 3.7 02:07:59 10° WNW 02:12:09 82° NNE 02:16:18 10° ESE
STARLINK-1320 4.0 02:14:52 26° S 02:15:38 30° SE 02:18:25 10° ENE
Cosmos 2219 3.2 02:10:18 10° NNW 02:15:57 66° WSW 02:21:31 10° SSE
STARLINK-1322 4.0 02:15:11 26° S 02:15:58 30° SE 02:18:46 10° ENE
STARLINK-1324 4.0 02:15:32 26° S 02:16:19 30° SE 02:19:07 10° ENE
STARLINK-1294 4.0 02:15:47 26° S 02:16:36 31° SE 02:19:26 10° ENE
STARLINK-1261 4.0 02:16:09 26° S 02:16:58 31° SE 02:19:47 10° ENE
STARLINK-1219 3.6 02:12:57 10° WNW 02:17:08 87° NNE 02:21:17 10° ESE
STARLINK-1325 4.0 02:16:30 26° S 02:17:20 31° SE 02:20:09 10° ENE
STARLINK-1333 3.9 02:16:48 26° S 02:17:38 31° SE 02:20:28 10° ENE
STARLINK-1334 3.9 02:17:07 26° S 02:17:58 31° SE 02:20:48 10° ENE
STARLINK-1326 3.9 02:17:28 26° S 02:18:20 31° SE 02:21:09 10° ENE
STARLINK-1323 3.9 02:17:47 26° S 02:18:39 32° SE 02:21:29 10° ENE
STARLINK-1338 4.2 02:17:39 24° S 02:18:53 32° SE 02:22:02 10° ENE
STARLINK-1349 3.9 02:18:06 26° S 02:18:59 32° SE 02:21:49 10° ENE
STARLINK-1336 3.9 02:18:28 26° S 02:19:22 32° SE 02:22:12 10° ENE
Cosmos 1980 Rocket 4.2 02:15:24 10° SSE 02:19:29 21° E 02:23:35 10° NE
STARLINK-1331 3.9 02:18:45 26° S 02:19:40 32° SE 02:22:30 10° ENE
STARLINK-1344 3.9 02:19:05 26° S 02:19:59 32° SE 02:22:51 10° ENE
STARLINK-1343 3.9 02:19:25 26° S 02:20:20 33° SE 02:23:11 10° ENE
STARLINK-1346 3.9 02:19:43 26° S 02:20:42 33° SE 02:23:35 10° ENE
STARLINK-1328 3.9 02:20:05 26° S 02:21:02 33° SE 02:23:53 10° ENE
STARLINK-1354 3.8 02:20:22 26° S 02:21:20 33° SE 02:24:12 10° ENE
STARLINK-1347 3.8 02:20:44 26° S 02:21:42 33° SE 02:24:34 10° ENE
STARLINK-1357 3.8 02:21:01 26° S 02:22:01 34° SE 02:24:53 10° ENE
STARLINK-1211 3.5 02:17:55 10° WNW 02:22:06 89° SSW 02:26:15 10° ESE
STARLINK-1335 3.8 02:21:22 26° S 02:22:22 34° SE 02:25:14 10° ENE
Cosmos 1328 4.4 02:19:19 15° S 02:22:25 53° E 02:26:20 10° NNE
STARLINK-1327 3.8 02:21:41 26° S 02:22:41 34° SE 02:25:34 10° ENE
STARLINK-1371 4.1 02:21:31 24° S 02:22:54 34° SE 02:26:07 10° ENE
STARLINK-1340 3.8 02:22:01 26° S 02:23:02 34° SE 02:25:56 10° ENE
STARLINK-1356 3.8 02:22:21 26° S 02:23:23 34° SE 02:26:16 10° ENE
STARLINK-1345 3.8 02:22:40 26° S 02:23:44 35° SE 02:26:36 10° ENE
Cosmos 192 4.3 02:20:35 21° SSW 02:23:55 87° WNW 02:28:55 10° NNE
STARLINK-1355 3.8 02:22:59 26° S 02:24:03 35° SE 02:26:56 10° ENE
STARLINK-1321 3.8 02:23:18 26° S 02:24:22 35° SE 02:27:15 10° ENE
STARLINK-1358 3.7 02:23:39 26° S 02:24:44 35° SE 02:27:38 10° ENE
UNK 4.4 02:22:20 21° SSW 02:24:49 38° W 02:29:08 10° NNW
STARLINK-1341 4.0 02:23:29 24° S 02:24:56 36° SE 02:28:11 10° ENE
STARLINK-1332 3.7 02:23:57 26° S 02:25:03 36° SE 02:27:57 10° ENE
ERS-2 3.7 02:21:53 10° SE 02:25:15 35° ENE 02:28:38 10° N
STARLINK-1348 3.7 02:24:18 26° S 02:25:24 36° SE 02:28:18 10° ENE
STARLINK-1330 3.7 02:24:36 26° S 02:25:43 36° SE 02:28:38 10° ENE
Cosmos 1437 4.4 02:24:54 17° W 02:25:51 19° WNW 02:28:05 10° NNW
STARLINK-1363 3.7 02:24:56 26° S 02:26:03 36° SE 02:28:58 10° ENE
STARLINK-1337 3.7 02:25:15 26° S 02:26:23 37° SE 02:29:19 10° ENE
STARLINK-1342 3.7 02:25:35 26° S 02:26:44 37° SE 02:29:39 10° ENE
STARLINK-1374 4.0 02:25:26 24° SSW 02:26:59 37° SE 02:30:15 10° ENE
STARLINK-1364 3.7 02:25:55 26° S 02:27:05 37° SE 02:30:00 10° ENE
STARLINK-1245 3.5 02:22:55 10° WNW 02:27:05 84° SSW 02:31:14 10° ESE
STARLINK-1376 3.7 02:26:15 26° S 02:27:25 37° SE 02:30:21 10° ENE
STARLINK-1360 3.7 02:26:30 26° SSW 02:27:41 37° SE 02:30:38 10° ENE
STARLINK-1361 3.6 02:26:56 26° SSW 02:28:08 38° SE 02:31:04 10° ENE
STARLINK-1367 3.7 02:27:10 26° SSW 02:28:24 38° SE 02:31:22 10° ENE
AQUA 3.9 02:23:59 10° N 02:28:45 72° WNW 02:32:11 19° SSW
STARLINK-1366 3.6 02:27:33 26° SSW 02:28:46 38° SE 02:31:42 10° ENE
Cosmos 1812 Rocket 4.1 02:24:36 10° NNW 02:28:52 43° W 02:31:37 19° SSW
STARLINK-1339 3.9 02:27:27 23° SSW 02:29:03 38° SE 02:32:21 10° ENE
SL-4 R/B 2.5 02:24:45 12° WSW 02:29:19 73° NNW 02:33:59 10° ENE
STARLINK-1377 3.9 02:29:28 23° SSW 02:31:09 40° SE 02:34:27 10° ENE
CZ-4B R/B 3.6 02:26:10 10° N 02:31:16 68° WNW 02:35:13 18° SSW
Cosmos 2297 Rocket 2.2 02:25:53 10° NNW 02:31:29 62° WSW 02:37:01 10° SSE
STARLINK-1233 3.5 02:27:54 10° WNW 02:32:03 79° SSW 02:36:12 10° ESE
STARLINK-1353 3.8 02:31:17 23° SSW 02:33:00 40° SE 02:36:18 10° ENE
STARLINK-1375 3.8 02:33:04 22° SSW 02:34:51 42° SE 02:38:10 10° ENE
Cosmos 2082 3.9 02:29:30 10° NNW 02:35:12 78° ENE 02:40:51 10° SSE
ATLAS CENTAUR R/B 3.1 02:33:14 10° W 02:36:53 26° NW 02:40:22 10° NNE
STARLINK-1204 3.5 02:32:53 10° WNW 02:37:02 74° SSW 02:41:10 10° SE
STARLINK-1350 3.7 02:35:22 22° SSW 02:37:14 44° SE 02:40:34 10° ENE
Cosmos 990 Rocket 4.0 02:32:07 10° NNW 02:37:22 70° WSW 02:42:35 10° S
FALCON 9 DEB 3.1 02:35:24 20° WSW 02:37:39 87° SSE 02:41:08 10° ENE
CBERS-1 4.0 02:33:00 10° NNE 02:38:09 84° WNW 02:42:29 15° SSW
OE (NEXTSAT) 4.4 02:36:54 17° WSW 02:39:23 58° S 02:42:48 10° E
STARLINK-29 3.2 02:36:59 16° WSW 02:39:24 64° NNW 02:42:35 10° ENE
STARLINK-1352 3.7 02:37:40 21° SSW 02:39:39 46° SE 02:43:03 10° ENE
Cosmos 1455 2.5 02:38:01 10° NNW 02:41:37 46° W 02:44:16 17° SSW
Cosmos 1602 Rocket 4.5 02:39:06 17° SW 02:41:46 33° WNW 02:45:43 10° N
Cosmos 1825 Rocket 3.5 02:38:21 16° SSW 02:41:48 81° W 02:46:09 10° N
STARLINK-1368 3.6 02:39:45 21° SSW 02:41:50 48° SE 02:45:14 10° ENE
STARLINK-1238 3.5 02:37:51 10° WNW 02:41:59 70° SSW 02:46:06 10° SE
STARLINK-1369 3.6 02:41:37 20° SW 02:43:44 49° SE 02:47:07 10° ENE
STARLINK-1239 4.4 02:40:07 10° WNW 02:44:12 54° NNE 02:48:16 10° E
Meteor 1-28 Rocket 3.9 02:41:17 10° SSE 02:45:00 55° ENE 02:48:42 10° N
SL-16 R/B 3.3 02:41:06 15° SSW 02:45:20 32° W 02:50:50 10° NNW
ATLAS CENTAUR R/B 2.4 02:42:31 10° WNW 02:45:30 44° SW 02:52:05 10° SSE
STARLINK-1372 3.5 02:43:57 19° SW 02:46:12 52° SE 02:49:39 10° ENE
Cosmos 2263 Rocket 4.4 02:41:56 10° NNW 02:46:51 29° NE 02:51:42 10° ESE
STARLINK-1201 3.5 02:42:51 10° WNW 02:46:58 65° SSW 02:51:04 10° SE
Cosmos 2074 Rocket 4.4 02:41:37 10° S 02:47:49 64° E 02:54:03 10° NNE
STARLINK-1378 3.5 02:46:05 19° SW 02:48:25 54° SSE 02:51:53 10° ENE
STARLINK-1329 3.5 02:46:35 19° SW 02:48:56 54° SSE 02:52:25 10° ENE
STARLINK-1240 4.4 02:45:06 10° WNW 02:49:12 56° NNE 02:53:17 10° E
STARLINK-1365 3.4 02:47:17 18° SW 02:49:39 57° SSE 02:53:08 10° ENE
Cosmos 841 Rocket 4.2 02:44:40 10° S 02:49:44 51° ESE 02:54:49 10° NNE
GP-B 3.5 02:45:40 10° N 02:49:59 49° W 02:53:37 14° SSW
STARLINK-1379 3.4 02:48:13 18° SW 02:50:37 56° SSE 02:54:06 10° ENE
IRS-1D 3.7 02:45:43 10° N 02:51:02 68° WNW 02:55:45 13° SSW
STARLINK-1362 3.4 02:48:47 18° SW 02:51:13 57° SSE 02:54:43 10° ENE
STARLINK-1206 3.6 02:47:50 10° WNW 02:51:56 60° SSW 02:56:01 10° SE
Cosmos-2242 3.2 02:49:02 10° NNW 02:53:12 53° W 02:57:19 10° S
STARLINK-1373 3.4 02:50:59 17° SW 02:53:31 59° SSE 02:57:01 10° ENE
STARLINK-1216 4.3 02:50:05 10° WNW 02:54:11 58° NNE 02:58:17 10° E
Cosmos 1400 Rocket 3.1 02:50:14 10° N 02:54:21 73° ENE 02:58:29 10° SSE
COBE Rocket 4.1 02:50:07 10° SSE 02:55:02 79° ENE 03:00:07 10° N
Cosmos 2221 4.1 02:51:03 10° N 02:55:06 37° ENE 02:59:08 10° SE
STARLINK-1390 3.4 02:52:59 17° SW 02:55:34 61° SSE 02:59:04 10° ENE
ATLAS 3B R/B 4.0 02:51:36 10° WNW 02:56:05 19° WSW 02:59:50 12° SW
STARLINK-1205 3.7 02:52:50 10° WNW 02:56:54 56° SW 03:00:58 10° SE
RESURS DK-1 4.2 02:55:32 10° W 02:58:44 21° NW 03:01:58 10° N
STARLINK-1237 4.2 02:55:04 10° WNW 02:59:11 61° NNE 03:03:18 10° E
Cosmos 2184 Rocket 4.2 02:53:09 10° S 02:59:19 74° E 03:05:28 10° NNE
SL-08 R/B 3.3 02:55:53 10° S 03:00:34 66° WSW 03:05:13 10° NNW
CZ-4C R/B 4.0 02:57:28 10° SSE 03:00:57 52° ENE 03:04:31 10° N
STARLINK-1218 3.7 02:57:49 10° WNW 03:01:51 52° SW 03:05:53 10° SE
STARLINK-1202 4.1 03:00:04 10° WNW 03:04:12 63° NNE 03:08:19 10° ESE
Cosmos 1703 3.8 03:02:09 13° SSW 03:05:27 46° WNW 03:09:17 10° N
IRS-P3 4.2 03:01:20 10° N 03:06:39 70° WNW 03:11:56 10° SSW
STARLINK-1254 3.8 03:02:49 10° WNW 03:06:49 48° SW 03:10:49 10° SE
Cosmos 2227 Rocket 2.7 03:01:41 10° NW 03:06:55 39° WSW 03:12:07 10° S
CZ-2D R/B 3.3 03:02:39 10° N 03:07:06 28° WNW 03:11:30 10° WSW
Cosmos 2181 Rocket 4.4 03:01:37 10° NNW 03:07:46 50° W 03:13:55 10° SSW
Cosmos 1763 Rocket 3.6 03:03:46 12° SW 03:08:28 65° WNW 03:13:33 10° NNE
ADEOS II 2.3 03:04:34 10° N 03:09:45 60° WNW 03:14:55 10° SSW
Cosmos 1697 Rocket 2.8 03:04:56 10° SSW 03:10:32 88° ESE 03:16:15 10° NNE
STARLINK-1231 3.9 03:07:50 10° WNW 03:11:48 45° SW 03:15:45 10° SE
STARLINK-1246 4.0 03:10:01 10° WNW 03:14:09 69° NNE 03:18:18 10° ESE
Cosmos 1315 Rocket 4.0 03:10:36 10° N 03:14:22 44° ENE 03:18:07 10° SSE
STARLINK-52 3.9 03:12:48 10° W 03:15:55 45° NNW 03:19:01 10° ENE
CZ-2C R/B 3.6 03:12:56 10° NNE 03:16:31 46° E 03:20:06 10° S
Resurs 1-4 Rocket 3.6 03:12:22 10° N 03:16:32 24° WNW 03:20:41 10° WSW
STARLINK-1232 4.0 03:12:50 10° WNW 03:16:46 42° SW 03:20:40 10° SSE
STARLINK-1224 3.9 03:15:00 10° WNW 03:19:09 73° NNE 03:23:17 10° ESE
ARIANE 5 R/B 2.5 03:16:16 10° N 03:21:20 73° WNW 03:26:20 10° SSW
H-2A R/B 2.1 03:17:06 10° S 03:21:23 75° WSW 03:25:49 10° NNW
STARLINK-1208 4.1 03:17:49 10° WNW 03:21:42 39° SW 03:25:33 10° SSE
ATLAS 2AS CENTAUR R/B 4.5 03:14:55 10° W 03:21:51 31° NNW 03:28:36 10° NE
BREEZE-M R/B 2.2 03:19:18 10° W 03:23:00 77° NNW 03:25:31 10° ENE
Starlink 7 placeholder 4.5 03:21:48 10° NW 03:23:20 19° N 03:24:54 10° NE
STARLINK-1225 3.8 03:19:58 10° WNW 03:24:09 77° NNE 03:28:17 10° ESE
STARLINK-1271 4.2 03:22:51 10° WNW 03:26:40 36° SW 03:30:28 10° SSE
Spot 4 Rocket 4.1 03:22:04 10° NNE 03:27:15 87° WNW 03:32:23 10° SSW
BREEZE-M DEB (TANK) 2.3 03:25:36 10° W 03:27:26 22° SSW 03:29:19 10° SSE
Lacrosse 4 Rocket 1.5 03:24:22 10° NW 03:28:40 61° WSW 03:32:49 10° SSE
STARLINK-1230 3.8 03:24:58 10° WNW 03:29:07 81° NNE 03:33:16 10° ESE
Meteor 1-27 4.2 03:24:13 10° NNW 03:29:45 67° W 03:35:15 10° S
USA 129 2.3 03:29:00 10° NNE 03:31:02 43° E 03:32:32 10° S
Cosmos 2154 Rocket 4.2 03:24:59 10° S 03:31:17 83° E 03:37:34 10° N
STARLINK-1154 4.3 03:27:52 10° WNW 03:31:37 33° SW 03:35:21 10° SSE
SJ 16-02 2.9 03:29:12 10° NW 03:32:08 18° W 03:35:03 10° SW
Cosmos 2058 4.1 03:28:34 10° SSE 03:32:33 45° E 03:36:34 10° NNE
Cosmos 2298 Rocket 4.1 03:27:22 10° NNW 03:32:43 86° WSW 03:38:01 10° SSE
STARLINK-1243 3.7 03:29:56 10° WNW 03:34:06 85° NNE 03:38:15 10° ESE
IDEFIX/ARIANE 42P 2.8 03:29:56 10° NNE 03:35:15 80° ESE 03:40:31 10° SSW
